Regional Weather Roundup
Issued by NWS

Home | Current Version | Previous Version | Text Only | Print | Product List | Glossary Off
Versions: 1 2 3 4 5 6 7 8 9 10 11 12 13 14 15 16 17 18 19 20 21 22 23 24 25 26 27 28 29 30 31 32 33 34 35 36 37 38 39 40 41 42 43 44 45 46 47 48 49 50

000
ASUS43 KDTX 022010
RWRMI
MICHIGAN HOURLY REGIONAL WEATHER ROUNDUP
NATIONAL WEATHER SERVICE DETROIT/PONTIAC MI
400 PM EDT MON MAY 02 2016

NOTE: "FAIR" INDICATES FEW OR NO CLOUDS BELOW 12,000 FEET WITH NO
SIGNIFICANT WEATHER AND/OR OBSTRUCTION TO VISIBILITY.

MIZ047>049-052>055-059>063-066>070-074>076-081>083-022100-
SOUTHEAST LOWER MICHIGAN

CITY           SKY/WX    TMP DP  RH WIND       PRES   REMARKS
ADRIAN         CLOUDY    51  45  79 E5        30.03S
ALMA           PTSUNNY   57  40  52 NE9       30.04F
ANN ARBOR      CLOUDY    52  43  71 NE3       30.03S
BAD AXE        SUNNY     55  35  46 NE9       30.04S
CARO           MOSUNNY   59  38  45 NE8       30.01F
DETROIT CITY   CLOUDY    52  42  69 NE3       30.04S
DETROIT        CLOUDY    52  43  71 E5        30.03F
FLINT          CLOUDY    56  41  57 E6        30.03S
GROSSE ILE     CLOUDY    52  45  76 CALM      30.02R
HILLSDALE      CLOUDY    48  46  91 E3        30.03S FOG
HOWELL         CLOUDY    52  44  75 E5        30.03S

CITY           SKY/WX    TMP DP  RH WIND       PRES   REMARKS
JACKSON        CLOUDY    51  45  79 CALM      30.03F
LAMBERTVILLE   CLOUDY    53  46  77 E5        30.03R
LANSING        CLOUDY    54  43  66 NE7       30.04F
LAPEER         FAIR      57  37  47 NE9       30.02S
MASON          CLOUDY    51  44  78 NE6       30.04S
MONROE         CLOUDY    52  45  76 CALM      30.03R
MT. CLEMENS    CLOUDY    54  44  67 NE3       30.01F
PONTIAC        CLOUDY    53  42  66 VRB5      30.01F
PORT HOPE        N/A     47  40  76 N3        30.04S
PORT HURON     MOSUNNY   54  43  66 NE6       30.02S
TRI CITIES     SUNNY     58  39  49 NE9       30.04F
MIDLAND        FAIR      58  32  37 NE13      30.04S
TROY           CLOUDY    54  43  66 CALM      30.04R
SAGINAW HB     SUNNY     57  41  54 N7        30.03S
$$
MIZ043>046-050>051-056>058-064>065-071>073-077>080-022100-
SOUTHWEST LOWER MICHIGAN

CITY           SKY/WX    TMP DP  RH WIND       PRES   REMARKS
BATTLE CREEK   CLOUDY    52  44  74 E5        30.04F
BENTON HARBOR  CLOUDY    51  38  60 VRB6      30.04F
BIG RAPIDS     CLOUDY    59  31  34 NE7       30.01F
COLDWATER      CLOUDY    49  48  98 NE6       30.03S FOG
FREMONT        PTSUNNY   62  33  33 E8        30.01F
HOLLAND        CLOUDY    54  41  61 W8        30.04S
GRAND RAPIDS   CLOUDY    57  42  57 E9        30.04S
IONIA          CLOUDY    54  42  64 CALM      30.04S
KALAMAZOO      CLOUDY    53  43  68 N7        30.04F
LUDINGTON      PTSUNNY   60  34  38 N13G20    30.03S
MARSHALL       CLOUDY    51  45  79 CALM      30.03F
MOUNT PLEASANT SUNNY     59  31  34 CALM      30.02F
MUSKEGON       PTSUNNY   56  38  50 SW7       30.03S
SOUTH HAVEN    CLOUDY    49  39  68 NW7       30.03F
$$
MIZ016>042-022100-
NORTHERN LOWER MICHIGAN

CITY           SKY/WX    TMP DP  RH WIND       PRES   REMARKS
ALPENA         MOSUNNY   62  31  31 E12G18    30.02F
BEAVER ISLAND  SUNNY     60  34  38 W8        30.03F
BELLAIRE       CLOUDY    63  29  28 NW10G20   30.02S
CADILLAC       CLOUDY    59  31  34 NE8       30.01S
CHARLEVOIX     SUNNY     57  36  44 W9        30.06F
FRANKFORT      SUNNY     59  38  44 N10       30.04S
GAYLORD        CLOUDY    59  27  29 NE7       30.01F
GRAYLING       CLOUDY    59  30  33 E8        30.02S
HARBOR SPRINGS SUNNY     48  37  64 SW8       30.02F
HOUGHTON LAKE  CLOUDY    60  29  30 E9        30.01F
MANISTEE       MOSUNNY   54  36  50 NW14      30.04S
OSCODA         SUNNY     57  34  41 E7        30.03S
PELLSTON       CLOUDY    64  28  25 NE7       30.02F
ROGERS CITY    SUNNY     56  31  38 N7        30.04F
TRAVERSE CITY  MOSUNNY   58  38  47 NE8       30.02F
$$
MIZ007>008-015-022100-
EASTERN UPPER MICHIGAN

CITY           SKY/WX    TMP DP  RH WIND       PRES   REMARKS
KINROSS          N/A     61  30  31 NW14      30.02S
MACKINAC ISLAN PTSUNNY   58  33  38 W8        30.02F
NEWBERRY       MOSUNNY   60  33  36 N8        30.02F
S. S. MARIE    SUNNY     61  32  33 NW13      30.02F
MUNISING         N/A     46  39  76 NE10      30.07F
$$
MIZ004>006-011>014-085-022100-
CENTRAL UPPER MICHIGAN

CITY           SKY/WX    TMP DP  RH WIND       PRES   REMARKS
MANISTIQUE     CLOUDY    55  37  50 S7        30.03F
ESCANABA       PTSUNNY   61  32  33 S12       30.03F
MENOMINEE      SUNNY     61  32  33 SE13      30.04F
SAWYER-GWINN   SUNNY     55  30  38 NE14G21   30.08F
$$
MIZ001>003-009>011-084-022100-
WESTERN UPPER MICHIGAN

CITY           SKY/WX    TMP DP  RH WIND       PRES   REMARKS
IRON MOUNTAIN  MOSUNNY   63  26  24 MISG      30.01F
HOUGHTON       SUNNY     58  31  35 CALM      30.05F
COPPER HARBOR    N/A     46  38  73 CALM      30.07F
IRONWOOD         N/A     59  30  33 N5        30.03F
$$

ABBREVIATIONS USED IN REMARKS
   TC - TEMPERATURE IN CELSIUS
  WCI - WIND CHILL INDEX
   HX - HEAT INDEX
  VSB - VISIBILITY





USA.gov is the U.S. government's official web portal to all federal, state and local government web resources and services.